Regional Weather Roundup
Issued by NWS

Home | Current Version | Previous Version | Text Only | Print | Product List | Glossary On
Versions: 1 2 3 4 5 6 7 8 9 10 11 12 13 14 15 16 17 18 19 20 21 22 23 24 25 26 27 28 29 30 31 32 33 34 35 36 37 38 39 40 41 42 43 44 45 46 47 48 49 50
000
ASUS43 KDTX 221510
RWRMI
MICHIGAN HOURLY REGIONAL WEATHER ROUNDUP
NATIONAL WEATHER SERVICE DETROIT/PONTIAC MI
1000 AM EST WED NOV 22 2017

NOTE: "FAIR" INDICATES FEW OR NO CLOUDS BELOW 12,000 FEET WITH NO
SIGNIFICANT WEATHER AND/OR OBSTRUCTION TO VISIBILITY.

MIZ047>049-052>055-059>063-066>070-074>076-081>083-221600-
SOUTHEAST LOWER MICHIGAN

CITY           SKY/WX    TMP DP  RH WIND       PRES   REMARKS
ADRIAN         CLOUDY    31  16  54 N7        30.29R WCI  24
ALMA           CLOUDY    31  17  56 NW6       30.28R WCI  25
ANN ARBOR      PTSUNNY   32  16  51 NW9       30.27R WCI  24
BAD AXE        MOSUNNY   30  18  60 N8        30.25S WCI  23
CARO           FLURRIES  30  24  78 W8        30.26R WCI  22
DETROIT CITY   CLOUDY    31  17  56 NW7       30.27R WCI  24
DETROIT        PTSUNNY   33  16  49 N12       30.28R WCI  24
FLINT          CLOUDY    30  18  60 NW9       30.27R WCI  22
GROSSE ILE     MOSUNNY   33  17  51 N9G16     30.27R WCI  25
HILLSDALE      CLOUDY    30  16  55 N9        30.26R WCI  22
HOWELL         CLOUDY    30  20  65 NW8       30.26R WCI  23

CITY           SKY/WX    TMP DP  RH WIND       PRES   REMARKS
JACKSON        PTSUNNY   30  15  53 NW8       30.27R WCI  22
LAMBERTVILLE   CLOUDY    32  18  56 N8        30.28S WCI  25
LANSING        CLOUDY    31  17  56 N7        30.29R WCI  24
LAPEER         CLOUDY    30  20  66 NW6       30.25S WCI  24
MASON          CLOUDY    32  17  54 NW6       30.28R WCI  26
MONROE         SUNNY     33  16  49 NW8       30.27S WCI  26
MT. CLEMENS    CLOUDY    31  20  64 NW10      30.25R WCI  22
PONTIAC        PTSUNNY   30  18  60 NW13      30.25R WCI  20
PORT HOPE        N/A     31  16  54 NW15G24   30.23R WCI  20
PORT HURON     CLOUDY    30  19  64 W9        30.25S WCI  22
TRI CITIES     CLOUDY    31  22  69 NW5       30.28R WCI  26
MIDLAND        CLOUDY    31  21  65 CALM      30.27R
TROY           CLOUDY    33  19  56 NW10      30.28S WCI  24
SAGINAW HB     CLOUDY    32  23  69 NW8       30.27R WCI  25
$$
MIZ043>046-050>051-056>058-064>065-071>073-077>080-221600-
SOUTHWEST LOWER MICHIGAN

CITY           SKY/WX    TMP DP  RH WIND       PRES   REMARKS
BATTLE CREEK   CLOUDY    30  16  56 N5        30.29R WCI  25
BENTON HARBOR  CLOUDY    32  20  61 E5        30.31R WCI  27
BIG RAPIDS     CLOUDY    29  16  57 NW5       30.26R WCI  24
COLDWATER      CLOUDY    31  15  51 N9        30.29R WCI  23
FREMONT        CLOUDY    30  18  60 NW6       30.29R WCI  24
HOLLAND        CLOUDY    31  18  58 NE5       30.30R WCI  26
GRAND RAPIDS   CLOUDY    31  17  56 NW8       30.29R WCI  23
IONIA          CLOUDY    30  17  57 N6        30.28R WCI  24
KALAMAZOO      CLOUDY    31  15  52 VRB5      30.30R WCI  26
LUDINGTON      CLOUDY    30  17  57 N3        30.29R
MARSHALL       CLOUDY    29  15  55 CALM      30.28R
MOUNT PLEASANT CLOUDY    33  16  49 W6        30.26R WCI  27
MUSKEGON       CLOUDY    32  17  54 N5        30.31R WCI  27
SOUTH HAVEN    CLOUDY    32  19  58 CALM      30.31R
$$
MIZ016>042-221600-
NORTHERN LOWER MICHIGAN

CITY           SKY/WX    TMP DP  RH WIND       PRES   REMARKS
ALPENA         CLOUDY    28  23  81 W8        30.24R WCI  20
BEAVER ISLAND  CLOUDY    31  22  69 W6        30.24S WCI  25
BELLAIRE       CLOUDY    28  24  84 CALM      30.26S
CADILLAC       CLOUDY    27  19  71 W7        30.23R WCI  20
CHARLEVOIX     CLOUDY    31  17  56 NW5       30.27F WCI  26
FRANKFORT      CLOUDY    32  18  57 CALM      30.27S
GAYLORD        CLOUDY    24  19  81 CALM      30.21R
GRAYLING       CLOUDY    26  19  76 CALM      30.24R
HARBOR SPRINGS CLOUDY    30  17  56 W5        30.24S WCI  25
HOUGHTON LAKE  FLURRIES  25  19  78 W6        30.25R WCI  18
MANISTEE       CLOUDY    30  19  63 W5        30.28R WCI  25
OSCODA         MOSUNNY   29  20  68 W5        30.25R WCI  24
PELLSTON       CLOUDY    31  21  66 W8        30.24R WCI  23
ROGERS CITY    CLOUDY    27  21  76 W8        30.24R WCI  19
TRAVERSE CITY  CLOUDY    30  17  58 W7        30.26R WCI  23
$$
MIZ007>008-015-221600-
EASTERN UPPER MICHIGAN

CITY           SKY/WX    TMP DP  RH WIND       PRES   REMARKS
KINROSS        FLURRIES  25  22  88 W8        30.20S WCI  16
MACKINAC ISLAN CLOUDY    30  21  67 W10       30.21S WCI  21
NEWBERRY       CLOUDY    24  23  97 SW7       30.21R WCI  16
S. S. MARIE    MIX PCPN  24  20  84 S3        30.20R
$$
MIZ004>006-011>014-085-221600-
CENTRAL UPPER MICHIGAN

CITY           SKY/WX    TMP DP  RH WIND       PRES   REMARKS
MANISTIQUE     CLOUDY    25  17  69 W7        30.25S WCI  17
ESCANABA       CLOUDY    27  16  63 NW7       30.27S WCI  19
MENOMINEE      SUNNY     26  15  63 NW6       30.30S WCI  19
SAWYER-GWINN   CLOUDY    21  18  86 SW7       30.23R WCI  13
$$
MIZ001>003-009>011-084-221600-
WESTERN UPPER MICHIGAN

CITY           SKY/WX    TMP DP  RH WIND       PRES   REMARKS
IRON MOUNTAIN  CLOUDY    23  14  68 W5        30.23F WCI  17
HOUGHTON       CLOUDY    25  17  72 W7        30.18S WCI  17
COPPER HARBOR    N/A     27  17  66 W6        30.20  WCI  20
IRONWOOD       CLOUDY    17  10  74 SW12      30.24S WCI   4
$$

ABBREVIATIONS USED IN REMARKS
   TC - TEMPERATURE IN CELSIUS
  WCI - WIND CHILL INDEX
   HX - HEAT INDEX
  VSB - VISIBILITY





USA.gov is the U.S. government's official web portal to all federal, state and local government web resources and services.